sat.trackr.live / text

‹ back to catalog

STARLINK-6073

NORAD 56807 · 2023-078AS

PAYLOAD ACTIVE UNKNOWN

§ Identity

Operator
Country
US
Launch date
2023-05-31
Launch site
AFWTR
Launch vehicle
Mass (kg)
RCS (m²)

Purposes: comms

External: N2YO · Heavens-Above · Gunter

§ Orbital elements

Epoch: 2026-09-20T22:00:03.000096Z

Period
95.77 min
Inclination
70.0006°
Eccentricity
0.0003704
Mean motion
15.03625837 rev/d
Perigee alt
553.2 km
Apogee alt
558.3 km
Semi-major
6,933.9 km
B*
1.0474e-3
RAAN
192.0001°
Arg perigee
252.2494°
Mean anomaly
48.9762°
Rev number
576

§ Raw data

STARLINK-60731 56807U 23078AS  26263.91670139  .00014291  00000+0  10474-2 0  99952 56807  70.0006 192.0001 0003704 252.2494  48.9762 15.03625837  5760

JSON: /api/v1/satellites/56807 · /tle

For live sub-satellite position, see the globe view (requires WebGL).

§ Visibility from observer

Set your observer location to see the next 7 days of passes ≥ 10°. The values pass through the URL so the page stays shareable.

No JS? Fill the form by hand. The geolocation button needs JavaScript.